Voltar ao catálogo

STARLINK-11737

AtivoComunicaçõesVLEO
NORAD 64066·PAYLOAD·🇺🇸 United States

Lançado May 21, 2025 de Cape Canaveral Space Force Station

Loading…

Próximas Passagens (próximas 24 horas)

TLE

AtualizadoSource: CelesTrak SupGP

Época: Sep 15, 2026, 02:59 UTC

1 64066C 25107C   26258.12479167 -.00013564  00000+0 -10544-3 0  2582
2 64066  43.0013  36.3923 0001761 270.7010 359.6621 15.70823117    11

Acompanhe STARLINK-11737 em tempo real com AllMySat

Download on the App Store